Location: Ithaca
(42.4410°N, 76.4970°W)
Time: 01:31:59
(UTC-04:00)

ISS - Visible Passes

Search period start: 26 September 2017 00:00
Search period end: 06 October 2017 00:00
Orbit: 401 x 407 km, 51.6° (Epoch: 26 September)

Date Brightness Start Highest point End Pass type
(mag) Time Alt. Az. Time Alt. Az. Time Alt. Az.
26 Sep -3.7 20:37:04 10° WSW 20:40:20 72° NNW 20:40:35 67° N visible
27 Sep -3.8 19:44:45 10° SW 19:47:59 62° SE 19:50:42 14° ENE visible
27 Sep -1.1 21:21:51 10° WNW 21:23:21 20° WNW 21:23:21 20° WNW visible
28 Sep -2.5 20:29:05 10° W 20:32:08 36° NNW 20:33:19 26° NNE visible
29 Sep -3.3 19:36:26 10° WSW 19:39:40 59° NNW 19:42:55 10° NE visible
29 Sep -1.1 21:14:12 10° WNW 21:15:48 17° NNW 21:15:48 17° NNW visible
30 Sep -1.8 20:21:19 10° WNW 20:24:01 23° NNW 20:25:32 17° NNE visible
01 Oct -2.3 19:28:27 10° W 19:31:26 32° NNW 19:34:26 10° NE visible
01 Oct -1.0 21:06:26 10° NW 21:07:50 15° NNW 21:07:50 15° NNW visible
02 Oct -1.5 20:13:35 10° NW 20:15:56 18° N 20:17:26 14° NNE visible
03 Oct -1.7 19:20:39 10° WNW 19:23:16 21° NNW 19:25:53 10° NE visible
03 Oct -1.1 20:58:23 10° NW 20:59:37 15° NNW 20:59:37 15° NNW visible
04 Oct -1.5 20:05:42 10° NW 20:07:52 16° N 20:09:09 14° NNE visible
05 Oct -1.5 19:12:50 10° NW 19:15:08 17° N 19:17:24 10° NE visible
05 Oct -1.3 20:49:57 10° NW 20:51:17 17° NNW 20:51:17 17° NNW visible
